STARLINK-3662

decayed
NORAD ID: 52099 Int'l Des: 2022-029 Owner: SPXS Country: US Constellation: starlink
LEOCIRCULAR
Gruppe

Über STARLINK-3662

Beschreibung wird geladen...

Höhenverlauf

Altitude vs Time

uPlot chart will show altitude changes over time

Zweizeiliger Elementsatz

1 52099U 22029M 22107.74254399 .00835551 12231-4 10000-3 0 9999
2 52099 53.2004 353.8470 0002959 291.4410 183.8232 16.35755345 5968
Epoch: 17. Apr. 2022 • Age: 29954 hours

Aktueller Status

Position data unavailable
Startdatum 19. März 2022
Alter 3.4 years
Verglühungsdatum 17. Apr. 2022
Typ internet

Technische Details

Klassifizierung Payload
Masse 297.00 kg
Trockenmasse 275.00 kg
Gesamtmasse 297.00 kg
Länge 0.20 m
Durchmesser 2.80 m
Spannweite 9.00 m
Form Box + pan
Hersteller SPXS
Bus-Typ Starlink
Phasenstatus Reentered
Besitzer/Staat SPXS/US

Große Konstellationen

Loading constellations...